STOCKHOLM/ARLANDA current weather conditions

sailwx.info

Wind from 170 at 15 knots

Air temperature 13.0° C
Visibility: greater than 5.4 NM
Dewpoint 5.0° C

Last reported at 2015-Apr-25 10:20 UTC.
Time now 2015-Apr-25 12:29 UTC

Location: N 59°39' E 017°57'.
View on Google Maps.

See reports from other nearby stations

  
Tides and Currents Weather Stations Pressure Air Temp Water Temp Dewpoint Dewpoint Depression Visibility Wind Speed Wind Dir Waves Ship Positions
date/time (UTC)wind fromknots sea level pressurealtimeterstation pressurevisibilityair tempwater tempwave heightnotes
2015-Apr-25 11:20 160 13 5.413.0
2015-Apr-25 10:50 160 14 5.413.0
2015-Apr-25 10:20 170 15 5.413.0
2015-Apr-25 09:50 160 12 5.412.0
2015-Apr-25 09:20 150 10 12.0
2015-Apr-25 08:50 160 12 gusting 22 12.0
2015-Apr-25 08:20 150 12 11.0
2015-Apr-25 07:50 160 9 10.0
2015-Apr-25 07:20 140 7 5.4 9.0
2015-Apr-25 06:50 160 7 8.0
2015-Apr-25 06:20 160 7 7.0
2015-Apr-25 05:50 160 6 7.0
2015-Apr-25 05:20 160 5 6.0
2015-Apr-25 04:50 150 5 5.0
2015-Apr-25 04:20 140 5 5.0
2015-Apr-25 03:50 130 4 4.0
2015-Apr-25 03:20 160 4 3.0
2015-Apr-25 02:50 150 3 3.0
2015-Apr-25 02:20 160 3 3.0
2015-Apr-25 01:50 180 5 3.0
2015-Apr-25 01:20 170 4 3.0
2015-Apr-25 00:50 170 4 3.0
2015-Apr-25 00:20 190 4 3.0
2015-Apr-24 23:50 170 3 4.0
2015-Apr-24 23:20 170 5 4.0
2015-Apr-24 22:50 170 4 4.0
2015-Apr-24 22:20 140 4 5.0
2015-Apr-24 21:50 160 5 5.0
2015-Apr-24 21:20 140 5 5.0
2015-Apr-24 20:50 130 4 6.0
2015-Apr-24 20:20 130 7 6.0
2015-Apr-24 19:50 120 8 6.0
2015-Apr-24 19:20 100 8 6.0
2015-Apr-24 18:50 110 7 6.0
2015-Apr-24 18:20 090 9 5.4 7.0 Light rain showers.
2015-Apr-24 17:50 070 7 10.0
2015-Apr-24 17:20 320 4 10.0
2015-Apr-24 16:50 270 9 10.0
2015-Apr-24 16:20 270 9 10.0
2015-Apr-24 15:50 270 7 10.0
2015-Apr-24 15:20 240 12 10.0
2015-Apr-24 14:50 260 12 10.0
2015-Apr-24 14:20 250 12 10.0
2015-Apr-24 13:50 270 13 10.0
2015-Apr-24 13:20 270 15 11.0
2015-Apr-24 12:50 260 15 11.0
2015-Apr-24 12:20 260 15 11.0
2015-Apr-24 11:50 260 14 10.0
2015-Apr-24 11:20 280 20 10.0
2015-Apr-24 10:50 270 15 9.0
2015-Apr-24 10:20 300 13 9.0
2015-Apr-24 09:50 270 15 8.0
2015-Apr-24 09:20 300 13 8.0
2015-Apr-24 08:50 280 15 8.0
2015-Apr-24 08:20 300 14 7.0
2015-Apr-24 07:50 300 12 7.0
2015-Apr-24 07:20 310 14 6.0
2015-Apr-24 06:50 320 15 6.0
2015-Apr-24 06:20 310 12 5.0
2015-Apr-24 05:50 310 10 5.0
2015-Apr-24 05:20 320 10 5.0
2015-Apr-24 04:50 310 7 4.0
2015-Apr-24 04:20 330 7 4.0
2015-Apr-24 03:50 340 5 4.0
2015-Apr-24 03:20 340 6 4.0
2015-Apr-24 02:50 350 7 4.0
2015-Apr-24 02:20 360 5 5.0
2015-Apr-24 01:50 020 5 5.0
2015-Apr-24 01:20 360 4 4.0
2015-Apr-24 00:50 070 2 4.0
2015-Apr-24 00:20 030 4 4.0
2015-Apr-23 23:50 030 3 6.0
2015-Apr-23 23:20 230 4 6.0
2015-Apr-23 22:50 200 4 6.0
2015-Apr-23 22:20 210 3 6.0
2015-Apr-23 21:50 150 4 7.0
2015-Apr-23 21:20 130 4 7.0
2015-Apr-23 20:50 110 6 8.0
2015-Apr-23 20:20 090 5 8.0
2015-Apr-23 19:50 150 7 8.0
2015-Apr-23 19:20 130 5 9.0
2015-Apr-23 18:50 100 4 10.0
2015-Apr-23 18:20 090 4 10.0
2015-Apr-23 17:50 020 6 11.0
2015-Apr-23 17:20 340 8 11.0
2015-Apr-23 16:50 350 6 12.0
2015-Apr-23 16:20 360 7 12.0
2015-Apr-23 15:50 360 9 13.0
2015-Apr-23 15:20 300 10 13.0
2015-Apr-23 14:50 340 10 13.0
2015-Apr-23 14:20 310 14 13.0
2015-Apr-23 13:50 320 10 12.0
2015-Apr-23 13:20 340 13 gusting 25 12.0
2015-Apr-23 12:50 300 17 12.0
2015-Apr-23 12:20 320 18 13.0